Content
SEND FEEDBACK

Daily
Averages
Monthly
Summary
Greece

ATHENS, GREECE


Home > Europe > Greece
Elevation: 69 feet     Latitude: 37 54N     Longitude: 023 44E

WEATHER
 
SELECT A DAY
Number of Records: 84,129;   Date Range: 4/14/01 - 12/16/14
 
SHARE

PRINT THIS DATA

[ ← Previous Day ]
WEATHER ALMANAC - FEBRUARY 4, 2013
[ Next Day → ]
[ °C ]   °F
Weather ElementAverageHighLow
Temperature58.2 °F64.4 °F (12:50 pm)51.8 °F (11:20 pm)
Dewpoint50.6 °F53.6 °F (9:50 am)46.4 °F (7:20 am)
Humidity76.3 %94 % (11:20 pm)56 % (2:20 pm)
Barometer29.98 in30.01 in (8:50 am)29.95 in (12:50 am)
Wind Speed4.1 mph12.7 mph (2:20 am)
Weather ElementAverage
Visibility5.6 mi
Wind DirectionESE (114.7 °)

Weather ElementTotal
Precipitation---
Heating Degree Days6.9 (Base 65)
Growing Degree Days8.1 (Base 50)
Averaged from 45 records on February 4, 2013
WEATHER CONDITIONS BREAKOUT
WIND DIRECTION BREAKOUT
WEATHER BY HOUR - FEBRUARY 4, 2013
[ °C ]   °F
Local TimeTemperatureDewpointHumidityBarometerVisibilityWind DirectionWind SpeedGust SpeedPrecipitationEventsConditions
12:50 AM59.0 °F51.8 °F77 %29.95 in6.2 miSouth (190°)10.4 mphScattered Clouds
1:20 AM59.0 °F51.8 °F77 %29.95 in6.2 miVariable3.5 mphScattered Clouds
1:50 AM57.2 °F51.8 °F82 %29.95 in6.2 miSSW (200°)9.2 mphPartly Cloudy
2:20 AM57.2 °F51.8 °F82 %29.95 in6.2 miSSW (210°)12.7 mphPartly Cloudy
2:50 AM57.2 °F51.8 °F82 %29.95 in6.2 miVariable3.5 mphPartly Cloudy
3:20 AM57.2 °F50.0 °F77 %29.95 in6.2 miCalmPartly Cloudy
3:50 AM57.2 °F50.0 °F77 %29.98 in6.2 miVariable1.2 mphPartly Cloudy
4:20 AM55.4 °F48.2 °F77 %29.95 in6.2 miCalmPartly Cloudy
4:50 AM57.2 °F50.0 °F77 %29.95 in6.2 miVariable2.3 mphPartly Cloudy
5:20 AM55.4 °F48.2 °F77 %29.95 in6.2 miSE (130°)3.5 mphPartly Cloudy
5:50 AM57.2 °F48.2 °F72 %29.98 in6.2 miCalmScattered Clouds
6:20 AM55.4 °F48.2 °F77 %29.98 in6.2 miNNW (330°)2.3 mphScattered Clouds
6:50 AM55.4 °F48.2 °F77 %29.98 in6.2 miNorth (360°)3.5 mphScattered Clouds
7:20 AM53.6 °F46.4 °F77 %29.98 in4.3 miVariable2.3 mphScattered Clouds
7:50 AM53.6 °F46.4 °F77 %29.98 in4.3 miVariable1.2 mphScattered Clouds
8:20 AM53.6 °F48.2 °F82 %29.98 in4.3 miCalmScattered Clouds
8:50 AM55.4 °F50.0 °F82 %30.01 in4.3 miVariable1.2 mphScattered Clouds
9:20 AM57.2 °F50.0 °F77 %29.98 in4.3 miNorth (350°)2.3 mphScattered Clouds
9:50 AM59.0 °F53.6 °F82 %30.01 in4.3 miWSW (240°)2.3 mphMostly Cloudy
10:20 AM60.8 °F53.6 °F77 %30.01 in4.3 miVariable1.2 mphMostly Cloudy
10:50 AM62.6 °F53.6 °F72 %30.01 in4.3 miCalmMostly Cloudy
11:20 AM62.6 °F51.8 °F68 %30.01 in4.3 miVariable1.2 mphMostly Cloudy
12:50 PM64.4 °F53.6 °F68 %29.98 in5.0 miSSE (160°)5.8 mphMostly Cloudy
1:20 PM64.4 °F53.6 °F68 %29.98 in5.6 miSSE (150°)5.8 mphMostly Cloudy
1:50 PM64.4 °F50.0 °F59 %29.95 in5.6 miSouth (170°)10.4 mphMostly Cloudy
2:20 PM64.4 °F48.2 °F56 %29.95 in5.6 miSSE (160°)10.4 mphMostly Cloudy
2:50 PM64.4 °F51.8 °F64 %29.95 in6.2 miSouth (190°)9.2 mphMostly Cloudy
3:20 PM64.4 °F51.8 °F64 %29.95 in6.2 miESE (120°)8.1 mphMostly Cloudy
3:50 PM64.4 °F51.8 °F64 %29.95 in6.2 miSE (140°)9.2 mphMostly Cloudy
4:20 PM62.6 °F50.0 °F63 %29.95 in6.2 miSSE (150°)6.9 mphMostly Cloudy
4:50 PM62.6 °F50.0 °F63 %29.95 in6.2 miSSE (150°)8.1 mphMostly Cloudy
5:20 PM62.6 °F50.0 °F63 %29.95 in6.2 miSSE (150°)5.8 mphMostly Cloudy
5:50 PM59.0 °F50.0 °F72 %29.95 in6.2 miEast (80°)5.8 mphMostly Cloudy
6:20 PM57.2 °F51.8 °F82 %29.95 in6.2 miEast (80°)5.8 mphMostly Cloudy
6:50 PM57.2 °F51.8 °F82 %29.98 in6.2 miEast (90°)5.8 mphMostly Cloudy
7:20 PM57.2 °F51.8 °F82 %29.98 in6.2 miEast (80°)5.8 mphMostly Cloudy
7:50 PM57.2 °F51.8 °F82 %29.98 in6.2 miVariable2.3 mphMostly Cloudy
8:20 PM57.2 °F51.8 °F82 %30.01 in6.2 miVariable2.3 mphMostly Cloudy
8:50 PM57.2 °F51.8 °F82 %30.01 in6.2 miVariable1.2 mphMostly Cloudy
9:20 PM55.4 °F50.0 °F82 %30.01 in5.0 miSW (230°)3.5 mphMostly Cloudy
9:50 PM53.6 °F50.0 °F88 %30.01 in5.0 miNNW (340°)1.2 mphMostly Cloudy
10:20 PM53.6 °F50.0 °F88 %30.01 in5.0 miNorth (350°)3.5 mphMostly Cloudy
10:50 PM53.6 °F50.0 °F88 %30.01 in5.0 miNNE (20°)3.5 mphMostly Cloudy
11:20 PM51.8 °F50.0 °F94 %30.01 in5.0 miVariable1.2 mphMostly Cloudy
11:50 PM53.6 °F51.8 °F94 %30.01 in5.0 miNNW (340°)1.2 mphMostly Cloudy
Hourly data recorded from LGAV, located miles away from Athens, Greece







STORIES FROM OUR PARTNERS